TimeEST,TemperatureF,Dew PointF,Humidity,Sea Level PressureIn,VisibilityMPH,Wind Direction,Wind SpeedMPH,Gust SpeedMPH,PrecipitationIn,Events,Conditions,WindDirDegrees,DateUTC
12:53 AM,34.0,25.0,70,29.71,10.0,NNW,5.8,-,N/A,,Overcast,330,2013-03-02 05:53:00
1:53 AM,34.0,24.1,67,29.70,10.0,NW,5.8,-,N/A,,Overcast,320,2013-03-02 06:53:00
2:53 AM,33.1,24.1,70,29.69,10.0,NW,5.8,-,N/A,,Overcast,310,2013-03-02 07:53:00
3:53 AM,33.1,24.1,70,29.69,10.0,NW,4.6,-,N/A,,Partly Cloudy,320,2013-03-02 08:53:00
4:53 AM,33.1,23.0,66,29.69,10.0,NW,6.9,-,N/A,,Clear,320,2013-03-02 09:53:00
5:53 AM,32.0,23.0,69,29.69,10.0,NW,4.6,-,N/A,,Clear,320,2013-03-02 10:53:00
6:53 AM,32.0,23.0,69,29.70,10.0,NW,4.6,-,N/A,,Clear,320,2013-03-02 11:53:00
7:53 AM,34.0,24.1,67,29.70,10.0,NNW,6.9,-,N/A,,Clear,330,2013-03-02 12:53:00
8:53 AM,36.0,25.0,64,29.70,10.0,North,11.5,19.6,N/A,,Partly Cloudy,350,2013-03-02 13:53:00
9:53 AM,36.0,25.0,64,29.70,10.0,NNW,6.9,-,N/A,,Overcast,330,2013-03-02 14:53:00
10:53 AM,37.0,27.0,67,29.71,10.0,NW,6.9,-,N/A,,Overcast,320,2013-03-02 15:53:00
11:53 AM,39.0,26.1,60,29.69,10.0,Variable,3.5,-,N/A,,Overcast,0,2013-03-02 16:53:00
12:53 PM,39.9,25.0,55,29.66,10.0,NW,8.1,-,N/A,,Overcast,310,2013-03-02 17:53:00
1:53 PM,41.0,25.0,53,29.66,10.0,NW,8.1,-,N/A,,Overcast,320,2013-03-02 18:53:00
2:53 PM,41.0,25.0,53,29.65,10.0,NW,9.2,-,N/A,,Overcast,320,2013-03-02 19:53:00
3:53 PM,39.9,24.1,53,29.66,10.0,WNW,10.4,-,N/A,,Mostly Cloudy,300,2013-03-02 20:53:00
4:53 PM,39.9,24.1,53,29.67,10.0,NW,10.4,-,N/A,,Mostly Cloudy,320,2013-03-02 21:53:00
5:53 PM,37.9,23.0,55,29.68,10.0,NW,8.1,-,N/A,,Mostly Cloudy,310,2013-03-02 22:53:00
6:53 PM,37.0,21.9,54,29.69,10.0,NNW,8.1,-,N/A,,Overcast,330,2013-03-02 23:53:00
7:53 PM,35.6,23.0,60,29.64,10.0,NW,6.9,-,N/A,,Overcast,320,2013-03-03 00:53:00
8:53 PM,35.1,23.0,61,29.71,10.0,NNW,11.5,-,N/A,,Overcast,330,2013-03-03 01:53:00
9:53 PM,34.0,21.9,61,29.70,10.0,NW,8.1,-,N/A,,Overcast,320,2013-03-03 02:53:00
10:53 PM,33.1,23.0,66,29.69,10.0,NNW,9.2,-,N/A,,Overcast,330,2013-03-03 03:53:00
11:00 PM,33.8,23.0,65,29.64,10.0,North,9.2,-,N/A,,Overcast,350,2013-03-03 04:00:00
11:53 PM,33.1,23.0,66,29.69,10.0,NW,8.1,-,N/A,,Overcast,320,2013-03-03 04:53:00